Starlink 5633

operational
NORAD ID: 55410 Int'l Des: 2023-014 Owner: SPXS Country: US Constellation: starlink
LEOCIRCULAR

About Starlink 5633

Description loading...

Live Position

Loading 3D Globe...

Upcoming Passes

Altitude History

Altitude vs Time

uPlot chart will show altitude changes over time

Two-Line Element Set

1 55410U 23014V 25302.48853387 -.00000178 00000-0 -71054-5 0 9993
2 55410 70.0001 55.0963 0003051 270.3416 89.7394 14.98330778151912
Epoch: Oct 29, 2025 • Age: 15 hours

Current Status

Altitude 574.1 km
Velocity 7.57 km/s
Sub-Earth Point 4.94°N, 149.19°E
Launch Date Jan 31, 2023
Age 2.7 years
Type internet

Technical Details

Classification Payload
Mass 305.00 kg
Dry Mass 290.00 kg
Total Mass 305.00 kg
Length 0.20 m
Diameter 2.80 m
Span 9.00 m
Shape Box + pan
Manufacturer SPXS
Bus Type Starlink
Phase Status In Orbit
Owner/State SPXS/US

Large Constellations

Loading constellations...